FENGYUN 1C DEB

Satellite information

Favourite Embed

Satellite Type and Status

DEBRISIN ORBIT

Key statistics

Satellite FENGYUN 1C DEB at a glance.

Uptime

9495

Days in orbit

Revolutions

≈ 14.0

Per day

Orbit

SSO

Sun Synchronous Orbit

Inclination

98.4

Latest

Satellite identification and parameters

Extended collection of information and parameters for FENGYUN 1C DEB.

Object identification

Identified? True

Debris? True

Object name: FENGYUN 1C DEB

International designator: 1999-025ADL

Object number (NORAD): 30397

Object ID (CCSDS): 30397

Country: PEOPLES REPUBLIC OF CHINA (PRC)

Current information (Y/N): Y

RCS size: SMALL

Orbital parameters

Period: 103.029 minutes

Inclination: 98.3875 deg

SMA: 7280.046 km

Apoapsis: 1011.247 km

Periapsis: 792.575 km

RAAN: 294.3479 deg

Eccentricy: 0.0150186

Argument of periapsis: 346.879 deg

Mean anomaly: 140.7098 deg

Mean motion: 13.97660203 rev/day

Mean motion (dot): 0.0000178 rev/day2

B* drag term: 0.0011719 1/REarth

Two-line elements (TLE)

Creation date: May 8, 2025, 3:01 a.m.

Reference frame: TEME

Reference center: EARTH

Epoch: May 7, 2025, 4:56 p.m. UTC

TLE line 0: 0 FENGYUN 1C DEB

TLE line 1: 1 30397U 99025ADL 25127.70558228 .00001780 00000-0 11719-2 0 9998

TLE line 2: 2 30397 98.3875 294.3479 0150186 346.8790 140.7098 13.97660203927048

Live tracking on map

Real-time ground track for satellite FENGYUN 1C DEB.

In-orbit conjunctions

A list of the most updated potential collisions computed for object FENGYUN 1C DEB.

Target Orbit TCA Probability of collision Miss distance Type
COSMOS 2389 LEO 2025-01-05 12:50:11 0.0007276849 377.0 (m) PAYLOAD
THOR ABLESTAR DEB LEO 2024-11-12 22:29:29 0.0001542141 213.0 (m) DEBRIS

Associated space launch

Chinese polar orbiting meteorological satellite

FENGYUN 1C DEB was lifted into orbit during the mission ‘Long March 4B | Feng Yun 1C’, on board a Long March 4B space rocket.

The launch took place on May 10, 1999, 1:33 a.m. from Launch Complex 7.

For more information about the launch, click the button.

Launch to space Long March 4B | Feng Yun 1C
Long March 4B | Feng Yun 1C

Agency: N/A

Status: Launch Successful

Launch date: May 10, 1999, 1:33 a.m. UTC

Rocket: Long March 4B

Launch pad: Launch Complex 7

Location: Taiyuan Satellite Launch Center, People's Republic of China

...

Latest news about this satellite

There are no fresh news available about this satellite. Check back as we update our databases every day.


Newsletter sign-up

Weekly statistics, charts and insights to help you stay on top of the space industry.